[[{"header":{"parameterUnit":"m.s-1","parameterCategory":2,"la1":30.2991,"la2":30.254,"lo1":-89.0895,"lo2":-89.0444,"dx":0.0017,"dy":0.0017,"nx":28,"ny":28,"refTime":"2023-01-30T15:00:00:Z","depth":"0","parameterNumber":2,"parameterNumberName":"U-component_of_CURRENTS"},"data":[0,0,0,0,0,0,0,0,0,0,0,0,0,0,0,0,0,0,0,0,0,0,0,0,0,0,0,0,0,0,0,0,0,0,0,0,0,0,0,0,0,0,0,0,0,0,0,0,0,0,0,0,0,0,0,0,0,0,0.5117,0.5118,0,0.5173,0.5173,0.5174,0.5138,0.5136,0.5135,0.5133,0.5075,0.5075,0.5075,0,0,0,0,0,0,0,0,0,0,0,0,0,0.5026,0.5028,0.5117,0.5118,0.5119,0.5172,0.5173,0.5174,0.5138,0.5136,0.5134,0.5133,0.5075,0.5075,0.5075,0,0,0,0,0,0,0,0,0,0,0,0,0,0.507,0.5028,0.5117,0.5109,0.5108,0.5172,0.5173,0.5174,0.5138,0.5136,0.5134,0.5132,0.5076,0.5075,0.5075,0.5119,0,0,0.5074,0.5074,0,0,0,0,0,0,0,0,0.5068,0.5073,0.5109,0.5109,0.5109,0.5147,0.512,0.515,0.5139,0.5125,0.5133,0.5131,0.5092,0.509,0.5105,0.5116,0.5113,0.5074,0.5074,0.5074,0.5074,0,0,0,0,0,0,0,0.5065,0.5071,0.5137,0.511,0.511,0.5118,0.5121,0.5126,0.5117,0.5126,0.5124,0.5134,0.5091,0.5105,0.5103,0.5113,0.5074,0.5074,0.5074,0.5074,0.5094,0.5095,0,0,0,0,0,0,0.5062,0.5068,0.5135,0.5139,0.5085,0.5122,0.5125,0.5136,0.5119,0.5116,0.5136,0.5132,0.5107,0.5103,0.51,0.507,0.5074,0.5074,0.5074,0.5093,0.5094,0.5095,0,0,0,0,0,0,0.506,0.5068,0.5133,0.5106,0.5115,0.5126,0.5138,0.5138,0.5142,0.5128,0.5122,0.5138,0.5105,0.5101,0.5102,0.507,0.5074,0.5074,0.5093,0.5094,0.5094,0.5061,0,0,0,0,0,0,0.5057,0.5066,0.5096,0.5106,0.5116,0.5154,0.5141,0.5141,0.5153,0.5149,0.5129,0.5122,0.5103,0.5103,0.5102,0.507,0.5074,0.5092,0.5093,0.5094,0.5061,0.5061,0.506,0,0,0,0,0,0.5054,0.5083,0.5097,0.5106,0.5149,0.5154,0.516,0.5159,0.5156,0.5155,0.5151,0.5122,0.5109,0.5104,0.5103,0.5069,0.5091,0.5093,0.5094,0.5061,0.5061,0.506,0,0,0,0,0,0,0.5066,0.5083,0.5098,0.5135,0.5142,0.5148,0.5161,0.5165,0.5167,0.5159,0.5143,0.5137,0.5119,0.512,0.5115,0.5084,0.509,0.5092,0.5066,0.5065,0.5065,0.5062,0.5073,0,0,0,0,0,0.5086,0.51,0.512,0.5147,0.5151,0.5162,0.5174,0.5167,0.5166,0.5165,0.5153,0.5143,0.5131,0.5118,0.5111,0.5109,0.5129,0.5086,0.5086,0.5085,0.5085,0.5107,0.5108,0.51,0.51,0.51,0,0,0.5093,0.5111,0.5118,0.515,0.5155,0.5154,0.5161,0.5164,0.5155,0.5159,0.5145,0.5143,0.5134,0.5116,0.5107,0.5107,0.5102,0.5087,0.5086,0.5086,0.5108,0.5109,0.511,0.5101,0.5101,0.51,0,0,0.5097,0.5132,0.5138,0.5142,0.5155,0.5157,0.5156,0.516,0.5152,0.5154,0.5146,0.5138,0.5126,0.5108,0.5099,0.5103,0.5101,0.5091,0.5077,0.5098,0.5098,0.5098,0.5135,0.5139,0.5086,0.5086,0.5086,0,0.511,0.5126,0.5141,0.5142,0.5142,0.5152,0.5144,0.5145,0.5147,0.5141,0.5137,0.5128,0.5117,0.5094,0.5088,0.5095,0.5119,0.5071,0.5095,0.5096,0.5097,0.5134,0.5138,0.5085,0.5085,0.5085,0.5085,0,0.5107,0.5123,0.5121,0.5122,0.5122,0.5117,0.5113,0.5111,0.5108,0.5105,0.5089,0.5093,0.5086,0.5074,0.5078,0.5072,0.5091,0.5092,0.509,0.5095,0.5135,0.514,0.5083,0.5083,0.5084,0.5084,0,0,0.5109,0.512,0.5117,0.5114,0.511,0.5103,0.5087,0.5076,0.5063,0.5063,0.5048,0.5035,0.5046,0.5041,0.5044,0.5056,0.5086,0.5076,0.5078,0.5101,0.5148,0.4992,0.4984,0.5089,0.509,0.509,0.5176,0,0.5099,0.5106,0.5104,0.5084,0.5082,0.5074,0.5052,0.504,0.5034,0.5026,0.5026,0.5016,0.503,0.5028,0.5043,0.5073,0.5098,0.5064,0.515,0.5153,0.5003,0.4983,0.4679,0.4713,0.5181,0.5182,0.5183,0,0.5093,0.5097,0.5093,0.5067,0.5061,0.5045,0.5016,0.5001,0.4988,0.4981,0.4982,0.4991,0.5007,0.5021,0.5082,0.5061,0.5109,0.5135,0.5138,0.5005,0.5004,0.4784,0.4706,0.4542,0.5192,0.5191,0.519,0,0.5094,0.508,0.5081,0.5074,0.5052,0.5034,0.5014,0.499,0.4964,0.4966,0.4951,0.4979,0.4983,0.5047,0.5094,0.5102,0.5159,0.518,0.5091,0.5083,0.4844,0.4811,0.4599,0.5235,0.5234,0.5234,0.5234,0,0.5094,0.5074,0.5082,0.5081,0.504,0.5029,0.4986,0.4969,0.4944,0.4902,0.4937,0.4917,0.4988,0.5021,0.5093,0.5085,0.5166,0.5078,0.5079,0.4824,0.479,0.4654,0.4641,0.5237,0.5237,0.5236,0.5236,0,0.5069,0.5094,0.5078,0.5064,0.5045,0.5017,0.4952,0.4915,0.491,0.4863,0.4862,0.4876,0.4909,0.4972,0.5061,0.5045,0.4915,0.5074,0.4768,0.4728,0.4449,0.4449,0.419,0.4103,0.4982,0.4978,0.4975,0,0.5044,0.505,0.5053,0.5028,0.5012,0.4966,0.4914,0.4895,0.4851,0.4827,0.4794,0.4815,0.4804,0.4852,0.4807,0.4855,0.4786,0.4599,0.4538,0.4361,0.4365,0.4273,0.4216,0.424,0.4231,0.4224,0.4218,0,0.4966,0.4993,0.4988,0.4959,0.492,0.4851,0.4787,0.4758,0.4727,0.469,0.4648,0.4653,0.4634,0.4494,0.4493,0.4482,0.4304,0.445,0.4331,0.3799,0.362,0.3559,0.4298,0.4154,0.416,0.4165,0.4168,0.4171,0.4877,0.4874,0.4891,0.4848,0.4796,0.4709,0.4607,0.4566,0.4489,0.436,0.4468,0.4371,0.4233,0.4162,0.4106,0.3725,0.3904,0.3579,0.3615,0.3555,0.3357,0.395,0.3758,0.3761,0.3765,0.3768,0.3771,0,0.4736,0.4767,0.4748,0.4685,0.4559,0.4575,0.4471,0.433,0.4197,0.4167,0.4097,0.3884,0.3639,0.3499,0.3108,0.2911,0.2828,0.2803,0.2597,0.2612,0.3163,0.301,0.2561,0.2561,0.2561,0.2561,0.2561,0.2562,0.4667,0.4646,0.4672,0.4462,0.4373,0.4122,0.4031,0.3893,0.3822,0.3567,0.3413,0.3377,0.3175,0.2727,0.2307,0.2237,0.2125,0.1949,0.2121,0.248,0.2555,0.2627,0.2472,0.1918,0.1918,0.1382,0.1378,0.1374]},{"header":{"parameterUnit":"m.s-1","parameterCategory":2,"la1":30.2991,"la2":30.254,"lo1":-89.0895,"lo2":-89.0444,"dx":0.0017,"dy":0.0017,"nx":28,"ny":28,"refTime":"2023-01-30T15:00:00:Z","depth":"0","parameterNumber":3,"parameterNumberName":"V-component_of_CURRENTS"},"data":[0,0,0,0,0,0,0,0,0,0,0,0,0,0,0,0,0,0,0,0,0,0,0,0,0,0,0,0,0,0,0,0,0,0,0,0,0,0,0,0,0,0,0,0,0,0,0,0,0,0,0,0,0,0,0,0,0,0,-0.1081,-0.1082,0,-0.1127,-0.1127,-0.1128,-0.1127,-0.1127,-0.1126,-0.1126,-0.1199,-0.1201,-0.1204,0,0,0,0,0,0,0,0,0,0,0,0,0,-0.0951,-0.0954,-0.1081,-0.1082,-0.1082,-0.1127,-0.1127,-0.1128,-0.1127,-0.1127,-0.1126,-0.1126,-0.1198,-0.1201,-0.1204,0,0,0,0,0,0,0,0,0,0,0,0,0,-0.1002,-0.0955,-0.1081,-0.1088,-0.109,-0.1127,-0.1127,-0.1128,-0.1128,-0.1127,-0.1126,-0.1125,-0.1197,-0.1201,-0.1205,-0.1242,0,0,-0.1216,-0.1217,0,0,0,0,0,0,0,0,-0.1,-0.1007,-0.1087,-0.1088,-0.1089,-0.1122,-0.1108,-0.1168,-0.1128,-0.1112,-0.1126,-0.1125,-0.1177,-0.1182,-0.1191,-0.1245,-0.1249,-0.1216,-0.1218,-0.122,-0.1221,0,0,0,0,0,0,0,-0.0996,-0.1005,-0.1098,-0.1087,-0.1089,-0.1075,-0.1082,-0.1119,-0.1148,-0.1113,-0.1114,-0.1121,-0.1178,-0.1187,-0.1192,-0.125,-0.1216,-0.1219,-0.1221,-0.1223,-0.133,-0.1331,0,0,0,0,0,0,-0.0996,-0.1002,-0.1097,-0.11,-0.1043,-0.1078,-0.1086,-0.1111,-0.1147,-0.1152,-0.1121,-0.1121,-0.1181,-0.1188,-0.1195,-0.1221,-0.122,-0.1223,-0.1225,-0.133,-0.1331,-0.1331,0,0,0,0,0,0,-0.0994,-0.1005,-0.1095,-0.1051,-0.1062,-0.1082,-0.111,-0.1112,-0.1121,-0.1153,-0.1158,-0.1128,-0.1181,-0.119,-0.1227,-0.1225,-0.1225,-0.1228,-0.1329,-0.133,-0.1331,-0.1287,0,0,0,0,0,0,-0.099,-0.1004,-0.1028,-0.1052,-0.1064,-0.1123,-0.1111,-0.1114,-0.1128,-0.1127,-0.116,-0.1166,-0.1181,-0.1222,-0.1231,-0.123,-0.1231,-0.1328,-0.1329,-0.1331,-0.1287,-0.1286,-0.1285,0,0,0,0,0,-0.0986,-0.1019,-0.103,-0.1041,-0.1096,-0.1124,-0.1129,-0.1139,-0.1129,-0.1142,-0.1157,-0.1165,-0.1236,-0.1226,-0.1236,-0.1236,-0.1328,-0.1329,-0.1331,-0.1288,-0.1286,-0.1285,0,0,0,0,0,0,-0.0982,-0.1023,-0.1035,-0.1082,-0.1105,-0.1124,-0.1142,-0.1141,-0.1163,-0.1162,-0.1179,-0.1188,-0.1217,-0.1241,-0.1229,-0.1273,-0.1282,-0.1285,-0.1246,-0.1245,-0.1244,-0.1208,-0.1234,0,0,0,0,0,-0.0993,-0.1023,-0.1058,-0.1094,-0.1109,-0.1125,-0.1138,-0.1143,-0.1162,-0.117,-0.1188,-0.1212,-0.1234,-0.125,-0.1279,-0.131,-0.1272,-0.1317,-0.1316,-0.1314,-0.1294,-0.1245,-0.1236,-0.1336,-0.1336,-0.1336,0,0,-0.0999,-0.1027,-0.1044,-0.1094,-0.1112,-0.1124,-0.1131,-0.1154,-0.1152,-0.1177,-0.1189,-0.1213,-0.1243,-0.1268,-0.1283,-0.1286,-0.1263,-0.1316,-0.1315,-0.1295,-0.1245,-0.1235,-0.1225,-0.1338,-0.1337,-0.1337,0,0,-0.1012,-0.1055,-0.1078,-0.1094,-0.1125,-0.1134,-0.1139,-0.1162,-0.1167,-0.1189,-0.1196,-0.121,-0.1262,-0.1263,-0.1274,-0.1289,-0.1259,-0.1312,-0.1275,-0.1228,-0.1217,-0.1208,-0.1119,-0.1102,-0.131,-0.131,-0.131,0,-0.1013,-0.1053,-0.1087,-0.1104,-0.1107,-0.1133,-0.1137,-0.1152,-0.1177,-0.1171,-0.119,-0.1217,-0.1249,-0.1244,-0.125,-0.1281,-0.1238,-0.1273,-0.1221,-0.1211,-0.1202,-0.1113,-0.1095,-0.1308,-0.1308,-0.1308,-0.1308,0,-0.1041,-0.1061,-0.1076,-0.1099,-0.1107,-0.1122,-0.1136,-0.1144,-0.1151,-0.1152,-0.1158,-0.1192,-0.1194,-0.1218,-0.1242,-0.1204,-0.1185,-0.1221,-0.1212,-0.1188,-0.1097,-0.1079,-0.1305,-0.1306,-0.1306,-0.1307,0,0,-0.106,-0.1087,-0.109,-0.1084,-0.1102,-0.1108,-0.1105,-0.1105,-0.1078,-0.1114,-0.1069,-0.1124,-0.1125,-0.1137,-0.1163,-0.1136,-0.1039,-0.1152,-0.1151,-0.1039,-0.0892,-0.0809,-0.0781,-0.1065,-0.1063,-0.1061,-0.0841,0,-0.1066,-0.1084,-0.109,-0.108,-0.1085,-0.1082,-0.1064,-0.1059,-0.1058,-0.1027,-0.1048,-0.103,-0.1099,-0.1085,-0.1072,-0.1047,-0.0995,-0.1092,-0.0952,-0.0946,-0.0857,-0.0759,-0.0692,-0.0485,-0.0823,-0.082,-0.0818,0,-0.1094,-0.1093,-0.1091,-0.1053,-0.1051,-0.1039,-0.0995,-0.0982,-0.0947,-0.0935,-0.092,-0.0927,-0.089,-0.0954,-0.0872,-0.093,-0.09,-0.0885,-0.0877,-0.0799,-0.083,-0.0572,-0.0439,-0.0524,-0.079,-0.0792,-0.0794,0,-0.1097,-0.109,-0.1082,-0.1076,-0.1043,-0.1021,-0.0995,-0.0957,-0.0911,-0.0862,-0.08,-0.0791,-0.0734,-0.0728,-0.0703,-0.0775,-0.0585,-0.068,-0.0567,-0.0559,-0.0471,-0.046,-0.0382,-0.0597,-0.0597,-0.0598,-0.0598,0,-0.1105,-0.1088,-0.1083,-0.1073,-0.1021,-0.1006,-0.0938,-0.0904,-0.0828,-0.0725,-0.0746,-0.0642,-0.0675,-0.0587,-0.0613,-0.0492,-0.0502,-0.0508,-0.0486,-0.0453,-0.0444,-0.0494,-0.0578,-0.059,-0.0591,-0.0593,-0.0594,0,-0.1091,-0.1105,-0.1076,-0.1042,-0.1023,-0.0982,-0.0886,-0.082,-0.0758,-0.0612,-0.0575,-0.0484,-0.0344,-0.0348,-0.0276,-0.0321,-0.0255,-0.0221,-0.0154,-0.013,-0.0144,-0.0229,-0.0065,-0.0072,-0.0055,-0.0052,-0.0049,0,-0.1071,-0.1066,-0.1042,-0.1003,-0.0979,-0.0918,-0.0851,-0.079,-0.0694,-0.0494,-0.0393,-0.0227,-0.0065,0.0083,0.0062,0.0113,-0.0038,0.0149,0.0002,-0.0078,-0.0158,-0.0221,-0.0247,0.0151,0.0155,0.0159,0.0162,0,-0.0981,-0.0995,-0.0968,-0.0913,-0.0855,-0.0771,-0.0669,-0.0585,-0.0458,-0.0302,-0.0047,0.0098,0.0263,0.0391,0.0429,0.0391,0.0117,0.0224,0.012,0.002,-0.002,-0.0039,-0.0049,0.0194,0.019,0.0188,0.0186,0.0185,-0.0876,-0.0848,-0.0822,-0.0774,-0.0705,-0.0576,-0.0462,-0.0334,-0.013,0.0162,0.0239,0.0539,0.0607,0.0701,0.0609,0.0475,0.0407,0.0384,0.0301,0.0254,0.0209,0.0298,0.0556,0.0555,0.0554,0.0554,0.0553,0,-0.0683,-0.0689,-0.0655,-0.0562,-0.0449,-0.0457,-0.0284,-0.0145,0.0132,0.0392,0.0646,0.0951,0.0991,0.089,0.0738,0.0571,0.0441,0.0448,0.033,0.0304,0.0389,0.0352,0.0604,0.0604,0.0604,0.0604,0.0604,0.0604,-0.0558,-0.0498,-0.053,-0.0331,-0.0256,-0.0058,0.0056,0.0229,0.0426,0.0819,0.1094,0.1275,0.1289,0.0883,0.0586,0.0486,0.0306,0.0336,0.0223,0.0198,0.0182,0.0167,0.0113,0.031,0.031,0.0178,0.0176,0.0175]}],[{"header":{"parameterUnit":"m.s-1","parameterCategory":2,"la1":30.2991,"la2":30.254,"lo1":-89.0895,"lo2":-89.0444,"dx":0.0017,"dy":0.0017,"nx":28,"ny":28,"refTime":"2023-01-30T15:00:00:Z","depth":"2","parameterNumber":2,"parameterNumberName":"U-component_of_CURRENTS"},"data":[0,0,0,0,0,0,0,0,0,0,0,0,0,0,0,0,0,0,0,0,0,0,0,0,0,0,0,0,0,0,0,0,0,0,0,0,0,0,0,0,0,0,0,0,0,0,0,0,0,0,0,0,0,0,0,0,0,0,0.2031,0.2031,0,0.2036,0.2036,0.2035,0.2019,0.2019,0.2019,0.2019,0.2066,0.2068,0.2069,0,0,0,0,0,0,0,0,0,0,0,0,0,0.1832,0.1837,0.2031,0.2031,0.2032,0.2036,0.2036,0.2035,0.2019,0.2019,0.2019,0.2019,0.2066,0.2067,0.2069,0,0,0,0,0,0,0,0,0,0,0,0,0,0.1881,0.1838,0.2031,0.2028,0.2029,0.2036,0.2036,0.2035,0.2019,0.2019,0.2019,0.2019,0.2065,0.2067,0.2069,0.208,0,0,0.2075,0.2076,0,0,0,0,0,0,0,0,0.1879,0.1888,0.2028,0.2029,0.2029,0.2032,0.1983,0.2054,0.2019,0.2017,0.2019,0.2019,0.2062,0.2064,0.2057,0.2083,0.2085,0.2075,0.2076,0.2077,0.2077,0,0,0,0,0,0,0,0.1876,0.1887,0.2027,0.2029,0.2029,0.1968,0.1976,0.1995,0.2036,0.2017,0.2017,0.2027,0.2062,0.2055,0.2058,0.2085,0.2075,0.2077,0.2078,0.2079,0.2243,0.2246,0,0,0,0,0,0,0.1896,0.1885,0.2027,0.2028,0.1958,0.1972,0.1981,0.2026,0.2035,0.2038,0.2027,0.2026,0.2052,0.2056,0.206,0.2152,0.2077,0.2079,0.208,0.224,0.2244,0.2248,0,0,0,0,0,0,0.1892,0.191,0.2027,0.1958,0.1969,0.1978,0.2027,0.2027,0.2054,0.2043,0.2045,0.2059,0.2052,0.2057,0.2119,0.2151,0.208,0.2081,0.2236,0.2241,0.2246,0.2287,0,0,0,0,0,0,0.1887,0.191,0.195,0.1961,0.1974,0.2049,0.2028,0.2027,0.206,0.206,0.2071,0.2073,0.2052,0.2117,0.2121,0.2152,0.2083,0.2232,0.2239,0.2244,0.2282,0.2293,0.2302,0,0,0,0,0,0.1881,0.194,0.1953,0.197,0.2032,0.2051,0.2052,0.2051,0.2062,0.2075,0.2101,0.2074,0.2158,0.2121,0.2125,0.2158,0.2229,0.2237,0.2244,0.2277,0.229,0.2302,0,0,0,0,0,0,0.188,0.1945,0.1959,0.2038,0.2052,0.2051,0.2071,0.2078,0.2106,0.2121,0.2112,0.2117,0.2187,0.2181,0.214,0.223,0.2192,0.22,0.2215,0.2228,0.2238,0.2311,0.2084,0,0,0,0,0,0.1901,0.1964,0.1995,0.2059,0.2072,0.2081,0.2093,0.2098,0.2123,0.2135,0.2146,0.2175,0.2215,0.2229,0.2259,0.2302,0.2314,0.2332,0.2343,0.2351,0.2419,0.2452,0.247,0.2272,0.2272,0.2271,0,0,0.1921,0.1963,0.2001,0.2062,0.2074,0.2089,0.2088,0.2125,0.2147,0.2139,0.2187,0.2219,0.2243,0.2293,0.2323,0.2291,0.2408,0.236,0.2366,0.2432,0.2461,0.248,0.2497,0.2277,0.2276,0.2275,0,0,0.1946,0.2029,0.206,0.2079,0.2113,0.2125,0.2148,0.2171,0.2196,0.2243,0.226,0.2347,0.2354,0.2407,0.2427,0.2528,0.2472,0.2505,0.2597,0.2626,0.2642,0.2657,0.2657,0.2672,0.2493,0.2494,0.2494,0,0.1968,0.201,0.2068,0.2082,0.2102,0.2148,0.216,0.2197,0.2237,0.228,0.2268,0.239,0.2426,0.2524,0.2573,0.2555,0.2535,0.2531,0.2637,0.2652,0.2666,0.2663,0.2679,0.2496,0.2496,0.2496,0.2496,0,0.1973,0.2018,0.2042,0.2085,0.2117,0.2146,0.2198,0.2254,0.2298,0.233,0.2448,0.2511,0.2591,0.2607,0.2629,0.2754,0.2692,0.2648,0.2594,0.2688,0.2679,0.2694,0.2501,0.25,0.2499,0.2498,0,0,0.2011,0.2037,0.2051,0.2066,0.2122,0.2159,0.2228,0.2303,0.2378,0.244,0.2527,0.2665,0.2725,0.2765,0.2798,0.2858,0.2952,0.2807,0.2807,0.2791,0.2977,0.2824,0.2825,0.2884,0.2888,0.2891,0.2913,0,0.1995,0.2005,0.2034,0.2078,0.2092,0.217,0.2234,0.2326,0.2404,0.2504,0.2623,0.2725,0.2765,0.2825,0.2899,0.2946,0.3002,0.295,0.2909,0.291,0.2747,0.2843,0.2602,0.2593,0.2928,0.293,0.2932,0,0.1988,0.1995,0.2013,0.2083,0.2105,0.2151,0.2295,0.2355,0.2511,0.2574,0.2704,0.2783,0.2954,0.2947,0.3087,0.3028,0.3051,0.3069,0.3067,0.2941,0.2788,0.2566,0.2607,0.2957,0.2955,0.2953,0.2952,0,0.1984,0.2005,0.2024,0.2043,0.212,0.218,0.2241,0.2386,0.2468,0.2638,0.2712,0.2872,0.2966,0.3036,0.3125,0.3095,0.3221,0.3155,0.304,0.3026,0.2836,0.2799,0.3271,0.3271,0.3271,0.3271,0.3271,0,0.1969,0.2005,0.2028,0.2056,0.2137,0.2179,0.2299,0.2402,0.2522,0.2619,0.2761,0.2853,0.2996,0.3079,0.3132,0.3133,0.3217,0.3111,0.3046,0.2837,0.2802,0.3139,0.3123,0.3272,0.3272,0.3272,0.3271,0,0.1999,0.1992,0.2061,0.2125,0.2148,0.2231,0.2334,0.2396,0.2518,0.2642,0.2703,0.286,0.2961,0.3069,0.3174,0.312,0.3149,0.3127,0.2866,0.2771,0.2927,0.2914,0.2993,0.2989,0.2985,0.2982,0.2979,0,0.2008,0.2032,0.2139,0.2176,0.2216,0.2294,0.2328,0.2418,0.2455,0.2628,0.2662,0.2822,0.2862,0.2937,0.2947,0.2968,0.309,0.2708,0.2648,0.2983,0.2912,0.2904,0.2897,0.2397,0.239,0.2384,0.2379,0,0.206,0.213,0.2191,0.2216,0.2261,0.2329,0.2361,0.2398,0.2475,0.2536,0.2588,0.2627,0.2693,0.2582,0.2611,0.26,0.2682,0.2581,0.302,0.2493,0.2419,0.2349,0.2362,0.2326,0.2331,0.2335,0.2338,0.234,0.2146,0.2184,0.2216,0.2291,0.2314,0.2343,0.234,0.232,0.235,0.2335,0.242,0.2334,0.2316,0.2221,0.218,0.2189,0.2381,0.2251,0.227,0.2296,0.2212,0.2134,0.1971,0.1974,0.1976,0.1979,0.1981,0,0.2149,0.2193,0.2243,0.2308,0.2304,0.2323,0.2318,0.2215,0.2153,0.2102,0.2051,0.1812,0.1726,0.1779,0.1688,0.1663,0.1681,0.1603,0.1608,0.166,0.1708,0.1595,0.1189,0.1187,0.1185,0.1183,0,0,0.2151,0.2161,0.2187,0.2242,0.2278,0.2155,0.2124,0.1958,0.1836,0.1638,0.1514,0.1557,0.1625,0.1351,0.1337,0.1239,0.1437,0.1191,0.1823,0.1875,0.1919,0.2075,0.1959,0,0,0,0,0]},{"header":{"parameterUnit":"m.s-1","parameterCategory":2,"la1":30.2991,"la2":30.254,"lo1":-89.0895,"lo2":-89.0444,"dx":0.0017,"dy":0.0017,"nx":28,"ny":28,"refTime":"2023-01-30T15:00:00:Z","depth":"2","parameterNumber":3,"parameterNumberName":"V-component_of_CURRENTS"},"data":[0,0,0,0,0,0,0,0,0,0,0,0,0,0,0,0,0,0,0,0,0,0,0,0,0,0,0,0,0,0,0,0,0,0,0,0,0,0,0,0,0,0,0,0,0,0,0,0,0,0,0,0,0,0,0,0,0,0,0.0407,0.0408,0,0.046,0.0461,0.0461,0.0443,0.0441,0.044,0.0439,0.035,0.0348,0.0347,0,0,0,0,0,0,0,0,0,0,0,0,0,0.035,0.0351,0.0407,0.0408,0.0408,0.046,0.0461,0.0461,0.0443,0.0441,0.044,0.0438,0.035,0.0349,0.0347,0,0,0,0,0,0,0,0,0,0,0,0,0,0.0387,0.0351,0.0407,0.0404,0.0404,0.046,0.0461,0.0462,0.0443,0.0441,0.0439,0.0437,0.035,0.0349,0.0347,0.0375,0,0,0.0342,0.0341,0,0,0,0,0,0,0,0,0.0385,0.0389,0.0404,0.0405,0.0405,0.0441,0.0408,0.0425,0.0444,0.043,0.0439,0.0436,0.0368,0.0365,0.0383,0.0371,0.0367,0.0342,0.0341,0.034,0.0339,0,0,0,0,0,0,0,0.0382,0.0387,0.043,0.0405,0.0405,0.042,0.0423,0.0412,0.0407,0.0431,0.0429,0.0434,0.0367,0.0385,0.038,0.0366,0.0342,0.034,0.0339,0.0338,0.0352,0.0353,0,0,0,0,0,0,0.0373,0.0385,0.0428,0.0431,0.0388,0.0423,0.0426,0.0433,0.0411,0.0406,0.0435,0.0433,0.0389,0.0382,0.0376,0.0395,0.034,0.0338,0.0337,0.0351,0.0352,0.0354,0,0,0,0,0,0,0.0371,0.0376,0.0426,0.0408,0.0415,0.0425,0.0434,0.0435,0.0434,0.0415,0.0408,0.043,0.0387,0.0379,0.0364,0.0391,0.0337,0.0336,0.0349,0.0351,0.0353,0.044,0,0,0,0,0,0,0.0369,0.0375,0.0374,0.0407,0.0415,0.0454,0.0435,0.0437,0.044,0.0436,0.0409,0.04,0.0385,0.0367,0.0362,0.0388,0.0334,0.0347,0.035,0.0352,0.0435,0.0444,0.0452,0,0,0,0,0,0.0367,0.0394,0.0374,0.0379,0.0414,0.0455,0.0461,0.0463,0.0441,0.0452,0.0432,0.04,0.038,0.0367,0.0361,0.0386,0.0346,0.0349,0.0352,0.0431,0.0442,0.0452,0,0,0,0,0,0,0.0373,0.0395,0.0374,0.0404,0.0416,0.0451,0.0464,0.0459,0.0457,0.044,0.0414,0.0406,0.0412,0.0384,0.0369,0.0399,0.0359,0.0362,0.0421,0.0432,0.044,0.0503,0.0333,0,0,0,0,0,0.037,0.0389,0.0405,0.0423,0.0428,0.0438,0.045,0.0449,0.0455,0.0452,0.0434,0.0418,0.0428,0.0413,0.0414,0.0418,0.0405,0.0432,0.0441,0.0449,0.0497,0.0525,0.0542,0.0364,0.0364,0.0364,0,0,0.0366,0.0389,0.039,0.0423,0.043,0.0464,0.0441,0.0461,0.0495,0.044,0.0466,0.0448,0.0438,0.046,0.0458,0.0431,0.0476,0.0453,0.0459,0.0505,0.053,0.0548,0.0564,0.0366,0.0366,0.0366,0,0,0.0405,0.0394,0.0427,0.0441,0.0459,0.0475,0.0475,0.0496,0.0507,0.0523,0.051,0.0527,0.0496,0.0535,0.0541,0.06,0.0531,0.0561,0.0647,0.0673,0.0688,0.0702,0.064,0.0648,0.0555,0.0555,0.0556,0,0.0393,0.0448,0.0442,0.0483,0.0503,0.0479,0.0521,0.0543,0.0556,0.059,0.0532,0.0582,0.056,0.0646,0.0661,0.0628,0.0583,0.0605,0.0687,0.07,0.0713,0.0647,0.0654,0.056,0.0559,0.0559,0.0559,0,0.0461,0.0496,0.0519,0.056,0.0579,0.061,0.063,0.0652,0.0642,0.0671,0.0732,0.072,0.0754,0.0742,0.0713,0.0802,0.0715,0.0701,0.0664,0.0737,0.066,0.0667,0.0567,0.0565,0.0564,0.0562,0,0,0.0456,0.0549,0.0554,0.0595,0.0621,0.0655,0.0709,0.0781,0.084,0.0839,0.0929,0.0954,0.094,0.0951,0.092,0.0942,0.0961,0.0848,0.0847,0.0793,0.0934,0.0815,0.0809,0.0937,0.094,0.0943,0.0818,0,0.0507,0.0621,0.0645,0.073,0.0784,0.0785,0.0846,0.0899,0.0928,0.1003,0.1031,0.1079,0.1019,0.1016,0.1044,0.0996,0.0992,0.0992,0.0868,0.0865,0.0758,0.0821,0.0821,0.0708,0.0824,0.0825,0.0826,0,0.0562,0.0642,0.0743,0.0847,0.0866,0.0903,0.0999,0.1047,0.1143,0.1161,0.1223,0.1223,0.1279,0.1199,0.118,0.1161,0.1067,0.1015,0.1008,0.0892,0.0763,0.0668,0.0715,0.0836,0.0835,0.0835,0.0834,0,0.0589,0.0708,0.0802,0.0827,0.0929,0.0974,0.1014,0.1098,0.1157,0.1253,0.1292,0.1356,0.1351,0.1313,0.1182,0.1171,0.1122,0.1092,0.09,0.0885,0.087,0.0849,0.1096,0.1096,0.1096,0.1096,0.1097,0,0.0649,0.0719,0.0822,0.0868,0.0978,0.1009,0.1105,0.1166,0.1245,0.1333,0.1361,0.1425,0.1376,0.1334,0.1228,0.1066,0.1146,0.0944,0.0879,0.0887,0.087,0.0986,0.0975,0.1091,0.1093,0.1094,0.1094,0,0.0675,0.0734,0.085,0.0965,0.0994,0.1062,0.1136,0.1212,0.1262,0.1374,0.1398,0.1455,0.1384,0.1294,0.1195,0.1084,0.097,0.0881,0.0842,0.0778,0.0695,0.069,0.0687,0.0683,0.0679,0.0676,0.0673,0,0.0714,0.0775,0.0906,0.0962,0.1012,0.1092,0.1149,0.1213,0.1276,0.1396,0.1456,0.1432,0.1429,0.1216,0.1033,0.0819,0.0839,0.0653,0.068,0.0733,0.067,0.067,0.067,0.0652,0.0649,0.0647,0.0646,0,0.0794,0.0823,0.092,0.1012,0.1083,0.1163,0.1234,0.1287,0.1365,0.1449,0.1534,0.1544,0.1354,0.116,0.0845,0.0715,0.07,0.0597,0.0715,0.0749,0.0689,0.063,0.0634,0.0626,0.0628,0.063,0.0631,0.0632,0.0848,0.0915,0.0999,0.1059,0.1127,0.1185,0.1259,0.1331,0.1415,0.1509,0.154,0.1514,0.1348,0.0919,0.0711,0.048,0.052,0.045,0.0462,0.0476,0.0488,0.0426,0.031,0.031,0.031,0.031,0.031,0,0.0931,0.095,0.1028,0.1102,0.1136,0.1173,0.1278,0.1339,0.1421,0.1476,0.1506,0.1291,0.1088,0.0875,0.0524,0.0332,0.0368,0.0257,0.0377,0.0396,0.0412,0.0428,0.023,0.0229,0.0228,0.0228,0,0,0.0974,0.104,0.1028,0.1041,0.1086,0.116,0.1218,0.1319,0.136,0.1365,0.1323,0.1315,0.1101,0.0829,0.06,0.0409,0.0435,0.0355,0.0438,0.0624,0.0643,0.0537,0.0581,0,0,0,0,0]}],[{"header":{"parameterUnit":"m.s-1","parameterCategory":2,"la1":30.2991,"la2":30.254,"lo1":-89.0895,"lo2":-89.0444,"dx":0.0017,"dy":0.0017,"nx":28,"ny":28,"refTime":"2023-01-30T15:00:00:Z","depth":"4","parameterNumber":2,"parameterNumberName":"U-component_of_CURRENTS"},"data":[0,0,0,0,0,0,0,0,0,0,0,0,0,0,0,0,0,0,0,0,0,0,0,0,0,0,0,0,0,0,0,0,0,0,0,0,0,0,0,0,0,0,0,0,0,0,0,0,0,0,0,0,0,0,0,0,0,0,0.027,0.0271,0,0.0296,0.0296,0.0296,0.0307,0.0308,0.0308,0.0308,0.0297,0.0296,0.0296,0,0,0,0,0,0,0,0,0,0,0,0,0,0.0281,0.028,0.027,0.0271,0.0272,0.0296,0.0296,0.0296,0.0307,0.0308,0.0308,0.0309,0.0297,0.0296,0.0296,0,0,0,0,0,0,0,0,0,0,0,0,0,0.0285,0.028,0.027,0.0283,0.0285,0.0296,0.0296,0.0296,0.0307,0.0308,0.0308,0.0309,0.0297,0.0296,0.0295,0.028,0,0,0.0293,0.0292,0,0,0,0,0,0,0,0,0.0284,0.0284,0.0281,0.0282,0.0284,0.0302,0.0295,0.029,0.0307,0.0295,0.0308,0.0309,0.0297,0.0296,0.0295,0.028,0.0279,0.0293,0.0292,0.0292,0.0291,0,0,0,0,0,0,0,0.0284,0.0283,0.0277,0.0281,0.0284,0.0305,0.0305,0.0294,0.0289,0.0296,0.0298,0.0306,0.0297,0.0296,0.0295,0.0279,0.0293,0.0292,0.0291,0.0291,0.0346,0.0348,0,0,0,0,0,0,0.0285,0.0282,0.0276,0.0278,0.029,0.0304,0.0304,0.0293,0.029,0.0292,0.0306,0.0307,0.0297,0.0296,0.0295,0.0352,0.0292,0.0291,0.029,0.0344,0.0347,0.0349,0,0,0,0,0,0,0.0285,0.0283,0.0275,0.0285,0.0286,0.0303,0.0291,0.0293,0.0301,0.0299,0.0299,0.0312,0.0298,0.0296,0.0304,0.0349,0.029,0.029,0.0342,0.0345,0.0348,0.0419,0,0,0,0,0,0,0.0284,0.0282,0.0275,0.0284,0.0285,0.029,0.0291,0.0293,0.0306,0.0308,0.0304,0.0303,0.0298,0.0305,0.0303,0.0347,0.0289,0.0339,0.0343,0.0347,0.0414,0.0424,0.0433,0,0,0,0,0,0.0284,0.0272,0.0274,0.0274,0.0274,0.0291,0.0293,0.0305,0.0306,0.0312,0.0316,0.0304,0.0329,0.0305,0.0302,0.0347,0.0338,0.0342,0.0347,0.041,0.0422,0.0432,0,0,0,0,0,0,0.0276,0.0272,0.0275,0.0263,0.0282,0.0294,0.0303,0.0308,0.0315,0.0321,0.0311,0.0311,0.0338,0.033,0.0304,0.0378,0.0338,0.0343,0.0388,0.0399,0.0408,0.044,0.0288,0,0,0,0,0,0.027,0.0257,0.027,0.0264,0.0274,0.0289,0.0297,0.031,0.0319,0.0323,0.0333,0.0344,0.0353,0.0364,0.0368,0.0395,0.0406,0.0429,0.0439,0.0446,0.0472,0.0523,0.0539,0.0364,0.0364,0.0364,0,0,0.0263,0.0265,0.0254,0.0262,0.0277,0.03,0.0294,0.0316,0.0352,0.0319,0.0371,0.0366,0.0364,0.0404,0.0418,0.0404,0.0502,0.0452,0.0459,0.0481,0.053,0.0547,0.0562,0.0367,0.0366,0.0366,0,0,0.0262,0.0249,0.0249,0.0264,0.0294,0.0311,0.0319,0.035,0.038,0.0415,0.0413,0.0438,0.0453,0.0475,0.0481,0.0542,0.0541,0.055,0.0631,0.0679,0.0694,0.0707,0.0738,0.0754,0.0565,0.0565,0.0565,0,0.0261,0.0261,0.0256,0.0274,0.0297,0.0318,0.0346,0.0379,0.0416,0.0456,0.0445,0.0508,0.0493,0.0556,0.0584,0.0564,0.0589,0.0583,0.0692,0.0705,0.0718,0.0746,0.0762,0.0569,0.0568,0.0568,0.0568,0,0.0268,0.0277,0.0285,0.0313,0.0334,0.0362,0.0409,0.0458,0.0496,0.0533,0.0612,0.0611,0.0659,0.0659,0.0636,0.073,0.0717,0.0687,0.0662,0.074,0.0764,0.078,0.0575,0.0573,0.0572,0.0571,0,0,0.0259,0.0283,0.0291,0.0323,0.036,0.039,0.0458,0.0537,0.0607,0.0658,0.0745,0.0775,0.0798,0.0809,0.0802,0.0843,0.0932,0.0816,0.0817,0.0845,0.1045,0.0964,0.0972,0.0928,0.0932,0.0934,0.1024,0,0.0281,0.0319,0.0327,0.0391,0.0423,0.0466,0.052,0.0593,0.0673,0.0764,0.0807,0.0875,0.0852,0.0885,0.093,0.0916,0.098,0.0911,0.0968,0.097,0.0887,0.099,0.0945,0.1035,0.1039,0.1041,0.1043,0,0.0297,0.0328,0.0374,0.0445,0.0463,0.0516,0.0639,0.0692,0.0811,0.0871,0.097,0.0998,0.1076,0.1038,0.1117,0.1079,0.1093,0.1084,0.1087,0.1003,0.0919,0.0944,0.1071,0.1069,0.1067,0.1065,0.1063,0,0.0302,0.0374,0.0417,0.0436,0.0504,0.0572,0.0635,0.0745,0.0811,0.0968,0.1028,0.1127,0.1179,0.1217,0.1213,0.1182,0.1281,0.1225,0.118,0.1173,0.1183,0.1168,0.1325,0.1324,0.1324,0.1324,0.1324,0,0.0311,0.0352,0.0444,0.0462,0.0546,0.0605,0.0717,0.0796,0.0919,0.0998,0.1098,0.1175,0.1233,0.1284,0.127,0.1275,0.1341,0.1229,0.1208,0.1208,0.1195,0.1193,0.1177,0.1327,0.1327,0.1326,0.1325,0,0.0278,0.0322,0.0379,0.0488,0.0536,0.0602,0.0741,0.0825,0.0947,0.1061,0.1111,0.1238,0.1307,0.1343,0.1394,0.1345,0.1346,0.1342,0.1356,0.1327,0.1191,0.1178,0.1301,0.1299,0.1297,0.1296,0.1295,0,0.0243,0.0277,0.0383,0.0425,0.0485,0.0605,0.0672,0.0819,0.0914,0.1082,0.1127,0.1256,0.1323,0.1337,0.1373,0.138,0.136,0.1359,0.1275,0.1231,0.1198,0.1186,0.1175,0.1293,0.1292,0.1292,0.1292,0,0.0204,0.025,0.0306,0.0383,0.0478,0.0539,0.0679,0.0743,0.0903,0.103,0.1134,0.1188,0.1272,0.1301,0.1337,0.1325,0.1345,0.1343,0.1345,0.1266,0.1222,0.1189,0.1179,0.1287,0.1287,0.1288,0.1288,0,0.0184,0.0216,0.0296,0.0361,0.0433,0.0462,0.0542,0.0678,0.0772,0.0992,0.1025,0.1146,0.1266,0.1277,0.1292,0.1293,0.1261,0.1199,0.1207,0.1214,0.114,0.1069,0.1104,0,0,0,0,0,0.018,0.0223,0.0272,0.0335,0.0381,0.0423,0.0532,0.0621,0.0809,0.0859,0.0947,0.1023,0.1088,0.115,0.1131,0.1226,0.124,0.1196,0.1165,0.1258,0.1264,0.1184,0,0,0,0,0,0,0.019,0.0247,0.0267,0.0283,0.0319,0.0371,0.0428,0.0544,0.0594,0.0781,0.0824,0.0963,0.1035,0.1097,0.1116,0.1133,0.1089,0.1285,0.1282,0.1255,0.126,0.1265,0.1184,0,0,0,0,0]},{"header":{"parameterUnit":"m.s-1","parameterCategory":2,"la1":30.2991,"la2":30.254,"lo1":-89.0895,"lo2":-89.0444,"dx":0.0017,"dy":0.0017,"nx":28,"ny":28,"refTime":"2023-01-30T15:00:00:Z","depth":"4","parameterNumber":3,"parameterNumberName":"V-component_of_CURRENTS"},"data":[0,0,0,0,0,0,0,0,0,0,0,0,0,0,0,0,0,0,0,0,0,0,0,0,0,0,0,0,0,0,0,0,0,0,0,0,0,0,0,0,0,0,0,0,0,0,0,0,0,0,0,0,0,0,0,0,0,0,0.0514,0.0514,0,0.0553,0.0554,0.0554,0.0575,0.0575,0.0575,0.0576,0.0582,0.0582,0.0582,0,0,0,0,0,0,0,0,0,0,0,0,0,0.0432,0.0433,0.0514,0.0514,0.0515,0.0553,0.0554,0.0554,0.0575,0.0575,0.0575,0.0576,0.0582,0.0582,0.0582,0,0,0,0,0,0,0,0,0,0,0,0,0,0.0468,0.0434,0.0514,0.0531,0.0533,0.0553,0.0554,0.0554,0.0575,0.0575,0.0576,0.0576,0.0582,0.0582,0.0582,0.0579,0,0,0.0582,0.0582,0,0,0,0,0,0,0,0,0.0466,0.0471,0.0528,0.0529,0.0532,0.056,0.0527,0.0561,0.0575,0.0558,0.0576,0.0576,0.0572,0.0573,0.0579,0.058,0.058,0.0582,0.0582,0.0582,0.0582,0,0,0,0,0,0,0,0.0464,0.0469,0.0529,0.0528,0.0531,0.0527,0.0533,0.0533,0.0563,0.056,0.0562,0.0567,0.0573,0.0579,0.0579,0.058,0.0582,0.0582,0.0582,0.0582,0.0538,0.0537,0,0,0,0,0,0,0.0462,0.0467,0.0528,0.053,0.0499,0.0529,0.0535,0.055,0.0563,0.0566,0.0567,0.0568,0.0579,0.0579,0.058,0.0571,0.0582,0.0582,0.0582,0.0539,0.0537,0.0536,0,0,0,0,0,0,0.046,0.0467,0.0526,0.0499,0.0507,0.053,0.0547,0.0551,0.0567,0.0569,0.0571,0.058,0.0579,0.058,0.0584,0.0572,0.0582,0.0583,0.054,0.0538,0.0537,0.0558,0,0,0,0,0,0,0.0457,0.0466,0.0485,0.05,0.0508,0.0543,0.0547,0.0552,0.057,0.0572,0.0581,0.0581,0.0579,0.0584,0.0584,0.0572,0.0583,0.0542,0.054,0.0537,0.0559,0.0557,0.0555,0,0,0,0,0,0.0454,0.0478,0.0486,0.0493,0.0531,0.0544,0.0548,0.0564,0.057,0.0579,0.0582,0.0581,0.0568,0.0584,0.0584,0.0572,0.0543,0.054,0.0538,0.0559,0.0557,0.0555,0,0,0,0,0,0,0.0454,0.0483,0.0492,0.0524,0.0535,0.0548,0.0565,0.0569,0.058,0.0586,0.0583,0.0583,0.0574,0.0568,0.0586,0.0546,0.0548,0.0545,0.0564,0.0562,0.056,0.0551,0.0583,0,0,0,0,0,0.0462,0.0491,0.0504,0.0533,0.054,0.0553,0.0564,0.0571,0.0579,0.0585,0.0593,0.0583,0.0561,0.0561,0.0548,0.0543,0.0516,0.0526,0.0524,0.0523,0.0512,0.0447,0.0439,0.0527,0.0527,0.0527,0,0,0.0471,0.0491,0.0508,0.0535,0.0549,0.0555,0.0561,0.058,0.0584,0.0583,0.0601,0.0585,0.0556,0.0543,0.0537,0.0541,0.0489,0.052,0.0519,0.0508,0.0443,0.0435,0.0428,0.0525,0.0525,0.0526,0,0,0.0491,0.052,0.0543,0.0548,0.0568,0.0572,0.0577,0.0594,0.0603,0.061,0.0595,0.0566,0.0569,0.053,0.051,0.0487,0.0479,0.049,0.0482,0.0421,0.0413,0.0406,0.0387,0.0378,0.0493,0.0493,0.0493,0,0.0498,0.053,0.0549,0.056,0.0567,0.0577,0.0584,0.0591,0.0607,0.0603,0.0617,0.0567,0.0547,0.0492,0.0484,0.0481,0.0469,0.05,0.042,0.0412,0.0404,0.0386,0.0376,0.0493,0.0493,0.0493,0.0493,0,0.0523,0.0545,0.0558,0.0576,0.0582,0.0595,0.0596,0.0609,0.0619,0.061,0.058,0.0551,0.0518,0.0497,0.0489,0.0422,0.044,0.0426,0.0431,0.0397,0.038,0.0369,0.0494,0.0494,0.0494,0.0494,0,0,0.0537,0.0571,0.0574,0.0585,0.0591,0.06,0.0602,0.0599,0.06,0.0591,0.057,0.0512,0.05,0.0473,0.0451,0.0392,0.0335,0.0399,0.0395,0.0391,0.0239,0.0257,0.0248,0.032,0.0318,0.0316,0.0259,0,0.0549,0.0583,0.0586,0.0603,0.0617,0.0614,0.0605,0.0597,0.0606,0.0593,0.0529,0.0511,0.0491,0.0487,0.0418,0.0348,0.0303,0.0353,0.0261,0.0258,0.0287,0.0233,0.0308,0.0251,0.0249,0.0247,0.0245,0,0.0564,0.0586,0.0621,0.0619,0.0621,0.0636,0.064,0.0632,0.0598,0.06,0.0563,0.0533,0.0446,0.0442,0.03,0.0344,0.0296,0.0241,0.0237,0.0234,0.0254,0.0282,0.0225,0.0227,0.0228,0.023,0.0231,0,0.0578,0.06,0.064,0.0643,0.0645,0.0666,0.0665,0.0649,0.0649,0.0629,0.063,0.0526,0.05,0.0385,0.0293,0.0301,0.0142,0.0135,0.0107,0.011,0.0106,0.0113,0.0034,0.0034,0.0034,0.0035,0.0035,0,0.0585,0.0607,0.0668,0.0686,0.0713,0.0701,0.0723,0.0718,0.0701,0.0692,0.0651,0.0632,0.0488,0.0394,0.0288,0.0167,0.0141,0.0089,0.0079,0.012,0.013,0.01,0.0108,0.0033,0.0033,0.0033,0.0034,0,0.0588,0.063,0.0666,0.0705,0.0732,0.0754,0.078,0.0797,0.0781,0.0777,0.0776,0.0707,0.0595,0.0453,0.0276,0.019,0.0051,0.0028,0.0108,0.0107,0.0066,0.0076,-0.0032,-0.0033,-0.0033,-0.0033,-0.0033,0,0.0587,0.0622,0.0699,0.0742,0.0779,0.0822,0.0858,0.0856,0.0873,0.0823,0.0819,0.0739,0.0676,0.0441,0.0291,0.0087,0.0069,0.0009,-0.0003,0.0049,0.005,0.0061,0.0071,-0.0033,-0.0033,-0.0033,-0.0034,0,0.0572,0.0623,0.0659,0.0764,0.0844,0.0888,0.094,0.0943,0.0922,0.0922,0.0857,0.0746,0.0629,0.0451,0.0315,0.0163,0.0032,0.0006,0.0005,-0.0006,0.0047,0.0051,0.0061,-0.0034,-0.0034,-0.0034,-0.0034,0,0.0562,0.0598,0.0684,0.0768,0.0859,0.0925,0.0941,0.0957,0.0956,0.0899,0.0883,0.0754,0.0688,0.0493,0.0347,0.0212,0.0171,0.0115,0.0108,0.0107,0.0158,0.0246,0.0202,0,0,0,0,0,0.0544,0.0607,0.0683,0.078,0.0868,0.0929,0.0981,0.0986,0.0975,0.0943,0.0902,0.0791,0.059,0.051,0.0376,0.0334,0.0142,0.0172,0.0072,-0.0038,-0.0037,0.0,0,0,0,0,0,0,0.0543,0.0618,0.0677,0.0779,0.0846,0.0949,0.098,0.098,0.0938,0.0909,0.081,0.0763,0.0575,0.0676,0.038,0.0339,0.0256,0.0085,0.0082,-0.0038,-0.0037,-0.0037,0.0001,0,0,0,0,0]}]]